FLOCK 3P-52 (42030 NORAD) Tracking and Keplerian Element Data

This shows tracking and keplerian element data for the satellite.

Feedback or suggestion? Click here.




ElementValue
Catalog42030
NameFLOCK 3P-52
Epoch Orbit5538
Epoch Day45.6095041
Epoch Year2018
RAAN111.2041
Inclination97.4662
Eccentricity0.0009747
Argument of Perigee84.3906
Mean Anonmoly275.8442
Mean Motion15.23927655
Decay Rate1.397E-05
L11 42030U 17008CL 18045.60950410 .00001397 00000-0 60725-4 0 9992
L22 42030 97.4662 111.2041 0009747 84.3906 275.8442 15.23927655 55380

Live tracking and technical data element details for FLOCK 3P-52 (NORAD 42030). FLOCK 3P-52 can be tracked NOW for your location showing map with azimuth and elevation plus other details from your city location.

Track the satellite on the map from your city or location and see movement details for azimuth, elevation, latitude, longitude, range, height, and movement on the map or in text.







IsCatalogInMostPopularTable: catalog: 42030, numindb: 160
Update: records affected: 1



GetName: 42030 FLOCK 3P-52

Hit Count: updated at: Wed, 14 Nov 2018 16:23:16 GMT